When you browse on this site, cookies collect data to enhance your experience and personalize the content and advertising you see.
Visit our Privacy Policy to learn more. By continuing to use the site, you agree to this use of cookies and data.
  • In Romania
  • List of Countries
  • For 7 days
  • Water Temperature
  • Satellite Maps
  • Weather Map
  • Weather Widgets
  • user-avatar
    Login

    Hourly Weather Turksad

    Today, 17 July, Wednesday

    Time Temperature Precipitation Wind Pressure Humidity
    00:00 +24°C° 0.3 mm 7 mps 752 mmHg 64%
    01:00 +23°C° 0.1 mm 7 mps 753 mmHg 65%
    02:00 +22°C° 0.1 mm 6 mps 753 mmHg 65%
    03:00 +22°C° 0 mm 5 mps 753 mmHg 66%
    04:00 +22°C° 0 mm 6 mps 753 mmHg 66%
    05:00 +22°C° 0 mm 6 mps 753 mmHg 66%
    06:00 +22°C° 0 mm 6 mps 754 mmHg 66%
    07:00 +23°C° 0 mm 5 mps 754 mmHg 60%
    08:00 +26°C° 0 mm 5 mps 753 mmHg 54%
    09:00 +27°C° 0 mm 4 mps 753 mmHg 48%
    10:00 +28°C° 0 mm 4 mps 753 mmHg 43%
    11:00 +29°C° 0 mm 3 mps 753 mmHg 39%
    12:00 +31°C° 0 mm 3 mps 753 mmHg 34%
    13:00 +31°C° 0 mm 2 mps 752 mmHg 33%
    14:00 +32°C° 0 mm 2 mps 752 mmHg 32%
    15:00 +33°C° 0 mm 1 mps 751 mmHg 30%
    16:00 +33°C° 0 mm 1 mps 751 mmHg 30%
    17:00 +33°C° 0 mm 1 mps 752 mmHg 31%
    18:00 +33°C° 0 mm 1 mps 752 mmHg 31%
    19:00 +31°C° 0 mm 1 mps 752 mmHg 33%
    20:00 +30°C° 0 mm 1 mps 752 mmHg 36%
    21:00 +29°C° 0 mm 1 mps 752 mmHg 39%
    22:00 +29°C° 0 mm 2 mps 752 mmHg 41%
    23:00 +28°C° 0 mm 2 mps 752 mmHg 43%

    Tomorrow, 18 July, Thursday

    Time Temperature Precipitation Wind Pressure Humidity
    00:00 +27°C° 0 mm 2 mps 752 mmHg 45%
    01:00 +27°C° 0 mm 2 mps 751 mmHg 45%
    02:00 +27°C° 0 mm 2 mps 751 mmHg 45%
    03:00 +27°C° 0 mm 2 mps 751 mmHg 45%
    04:00 +27°C° 0 mm 3 mps 751 mmHg 46%
    05:00 +27°C° 0 mm 3 mps 751 mmHg 47%
    06:00 +27°C° 0 mm 4 mps 751 mmHg 48%
    07:00 +28°C° 0 mm 5 mps 751 mmHg 43%
    08:00 +30°C° 0 mm 5 mps 751 mmHg 39%
    09:00 +33°C° 0 mm 6 mps 751 mmHg 35%
    10:00 +34°C° 0 mm 6 mps 751 mmHg 33%
    11:00 +35°C° 0 mm 6 mps 751 mmHg 30%
    12:00 +36°C° 0 mm 6 mps 751 mmHg 28%
    13:00 +36°C° 0 mm 5 mps 751 mmHg 28%
    14:00 +37°C° 0 mm 5 mps 750 mmHg 27%
    15:00 +37°C° 0 mm 5 mps 750 mmHg 27%
    16:00 +37°C° 0 mm 5 mps 750 mmHg 27%
    17:00 +36°C° 0 mm 5 mps 751 mmHg 28%
    18:00 +36°C° 0 mm 5 mps 751 mmHg 29%
    19:00 +35°C° 0 mm 4 mps 751 mmHg 31%
    20:00 +34°C° 0 mm 4 mps 751 mmHg 33%
    21:00 +32°C° 0 mm 4 mps 751 mmHg 35%
    22:00 +30°C° 0 mm 3 mps 751 mmHg 37%
    23:00 +29°C° 0 mm 2 mps 752 mmHg 39%

    Day after tomorrow, 19 July, Friday

    Time Temperature Precipitation Wind Pressure Humidity
    00:00 +28°C° 0 mm 2 mps 752 mmHg 42%
    01:00 +28°C° 0.3 mm 2 mps 752 mmHg 44%
    02:00 +27°C° 0.3 mm 3 mps 752 mmHg 47%
    03:00 +27°C° 0.3 mm 3 mps 752 mmHg 49%
    04:00 +27°C° 0.1 mm 3 mps 753 mmHg 49%
    05:00 +27°C° 0.1 mm 3 mps 753 mmHg 49%
    06:00 +27°C° 0.1 mm 3 mps 754 mmHg 49%
    07:00 +29°C° 0 mm 3 mps 754 mmHg 45%
    08:00 +30°C° 0 mm 4 mps 754 mmHg 41%
    09:00 +32°C° 0 mm 4 mps 755 mmHg 37%
    10:00 +33°C° 0 mm 4 mps 755 mmHg 35%
    11:00 +34°C° 0 mm 4 mps 755 mmHg 33%
    12:00 +35°C° 0 mm 4 mps 755 mmHg 31%
    13:00 +35°C° 0 mm 4 mps 755 mmHg 31%
    14:00 +36°C° 0 mm 3 mps 755 mmHg 30%
    15:00 +36°C° 0 mm 3 mps 755 mmHg 30%
    16:00 +35°C° 0 mm 4 mps 755 mmHg 31%
    17:00 +35°C° 0 mm 4 mps 755 mmHg 32%
    18:00 +35°C° 0 mm 4 mps 755 mmHg 34%
    19:00 +33°C° 0 mm 5 mps 756 mmHg 37%
    20:00 +32°C° 0 mm 6 mps 756 mmHg 40%
    21:00 +30°C° 0 mm 6 mps 756 mmHg 44%
    22:00 +29°C° 0 mm 6 mps 757 mmHg 45%
    23:00 +28°C° 0 mm 6 mps 757 mmHg 47%

    20 July, Saturday

    Time Temperature Precipitation Wind Pressure Humidity
    00:00 +28°C° 0 mm 6 mps 757 mmHg 49%
    01:00 +27°C° 0 mm 5 mps 757 mmHg 53%
    02:00 +26°C° 0 mm 5 mps 758 mmHg 56%
    03:00 +26°C° 0 mm 4 mps 758 mmHg 60%
    04:00 +25°C° 0 mm 4 mps 758 mmHg 63%
    05:00 +25°C° 0 mm 4 mps 759 mmHg 67%
    06:00 +25°C° 0 mm 4 mps 759 mmHg 70%
    07:00 +26°C° 0 mm 3 mps 759 mmHg 67%
    08:00 +26°C° 0 mm 3 mps 759 mmHg 65%
    09:00 +27°C° 0 mm 2 mps 760 mmHg 62%
    10:00 +28°C° 0 mm 2 mps 760 mmHg 57%
    11:00 +30°C° 0 mm 1 mps 759 mmHg 52%
    12:00 +31°C° 0 mm 1 mps 759 mmHg 46%
    13:00 +32°C° 0 mm 1 mps 759 mmHg 45%
    14:00 +32°C° 0 mm 1 mps 759 mmHg 43%
    15:00 +34°C° 0 mm 2 mps 759 mmHg 41%
    16:00 +34°C° 0 mm 2 mps 759 mmHg 41%
    17:00 +34°C° 0 mm 2 mps 759 mmHg 41%
    18:00 +33°C° 0 mm 1 mps 758 mmHg 41%
    19:00 +32°C° 0 mm 1 mps 759 mmHg 43%
    20:00 +31°C° 0 mm 1 mps 759 mmHg 46%
    21:00 +30°C° 0 mm 1 mps 759 mmHg 48%
    22:00 +30°C° 0 mm 2 mps 759 mmHg 48%
    23:00 +30°C° 0 mm 2 mps 759 mmHg 48%

    21 July, Sunday

    Time Temperature Precipitation Wind Pressure Humidity
    00:00 +29°C° 0 mm 2 mps 759 mmHg 48%
    01:00 +29°C° 0 mm 2 mps 759 mmHg 49%
    02:00 +28°C° 0 mm 2 mps 759 mmHg 50%
    03:00 +27°C° 0 mm 1 mps 758 mmHg 52%
    04:00 +28°C° 0 mm 2 mps 758 mmHg 51%
    05:00 +28°C° 0 mm 2 mps 758 mmHg 50%
    06:00 +28°C° 0 mm 3 mps 758 mmHg 49%
    07:00 +30°C° 0 mm 4 mps 758 mmHg 45%
    08:00 +32°C° 0 mm 4 mps 758 mmHg 41%
    09:00 +34°C° 0 mm 5 mps 758 mmHg 37%
    10:00 +35°C° 0 mm 5 mps 758 mmHg 35%
    11:00 +36°C° 0 mm 5 mps 757 mmHg 32%
    12:00 +38°C° 0 mm 6 mps 757 mmHg 30%
    13:00 +38°C° 0 mm 6 mps 757 mmHg 30%
    14:00 +38°C° 0 mm 6 mps 756 mmHg 30%
    15:00 +36°C° 0 mm 6 mps 756 mmHg 31%
    16:00 +36°C° 0 mm 6 mps 756 mmHg 31%
    17:00 +35°C° 0 mm 6 mps 756 mmHg 32%
    18:00 +35°C° 0 mm 7 mps 756 mmHg 33%
    19:00 +34°C° 0 mm 6 mps 756 mmHg 34%
    20:00 +33°C° 0 mm 5 mps 756 mmHg 35%
    21:00 +32°C° 0 mm 4 mps 757 mmHg 36%
    22:00 +30°C° 0 mm 4 mps 757 mmHg 37%
    23:00 +29°C° 0 mm 3 mps 757 mmHg 39%

    22 July, Monday

    Time Temperature Precipitation Wind Pressure Humidity
    00:00 +29°C° 0 mm 3 mps 756 mmHg 41%
    01:00 +28°C° 0 mm 2 mps 756 mmHg 44%
    02:00 +27°C° 0 mm 2 mps 756 mmHg 47%
    03:00 +26°C° 0 mm 1 mps 756 mmHg 51%
    04:00 +27°C° 0 mm 1 mps 756 mmHg 49%
    05:00 +27°C° 0 mm 1 mps 756 mmHg 48%
    06:00 +28°C° 0 mm 1 mps 756 mmHg 47%
    07:00 +29°C° 0 mm 1 mps 756 mmHg 42%
    08:00 +31°C° 0 mm 2 mps 756 mmHg 37%
    09:00 +32°C° 0 mm 2 mps 756 mmHg 32%
    10:00 +34°C° 0 mm 3 mps 756 mmHg 29%
    11:00 +35°C° 0 mm 3 mps 756 mmHg 26%
    12:00 +37°C° 0 mm 4 mps 755 mmHg 23%
    13:00 +37°C° 0 mm 4 mps 755 mmHg 23%
    14:00 +37°C° 0 mm 4 mps 755 mmHg 22%
    15:00 +38°C° 0 mm 4 mps 755 mmHg 22%
    16:00 +37°C° 0 mm 4 mps 755 mmHg 23%
    17:00 +37°C° 0 mm 4 mps 755 mmHg 24%
    18:00 +36°C° 0 mm 3 mps 755 mmHg 25%
    19:00 +34°C° 0 mm 4 mps 755 mmHg 32%
    20:00 +32°C° 0 mm 4 mps 755 mmHg 38%
    21:00 +29°C° 0 mm 4 mps 755 mmHg 45%
    22:00 +29°C° 0 mm 3 mps 755 mmHg 46%
    23:00 +28°C° 0 mm 2 mps 755 mmHg 48%
    Show more